User: anonymous   Login
Location: Key Biscayne
(25.6930°N, 80.1630°W)
Time: 07:08:02
(UTC-04:00)
Language:

CZ-2D R/B - Orbit

View from above orbital plane
View from above orbital plane
View from above satellite
View from above satellite

Ground track
Ground track

The orbit data is extracted from the following two-line orbital elements,

1 28738U 05024B   17145.48774869 +.00000443 +00000-0 +30191-4 0  9999
2 28738 097.4989 182.8114 0013891 084.2331 276.0482 15.11119555652369
Epoch (UTC): 25 May 2017 11:42:21
Eccentricity: 0.0013891
inclination: 97.4989°
perigee height: 523 km
apogee height: 542 km
right ascension of ascending node: 182.8114°
argument of perigee: 84.2331°
revolutions per day: 15.11119555
mean anomaly at epoch: 276.0482°
orbit number at epoch: 65236

The dashed part of the orbit path shows where the satellite is in the earth's shadow,  

DLR